Location: Brantley
(31.5822°N, 86.2569°W)
Time: 13:11:16
(UTC+00:00)

Vanguard 2 - Pass Details

Date: 16 February 2026
Orbit: 553 x 2896 km, 32.9° (Epoch: 17 March)

Event Time Altitude Azimuth Distance (km) Brightness Sun altitude
Rises 18:34:17 0° 266° (W) 3,060 10.8 45.5°
Reaches altitude 10° 18:37:04 10° 246° (WSW) 2,365 10.6 45.3°
Maximum altitude 18:40:47 18° 204° (SSW) 2,182 11.2 45.2°
Drops below altitude 10° 18:45:35 10° 164° (SSE) 3,202 11.5 44.9°
Sets 18:50:19 0° 148° (SSE) 4,670 11.9 44.6°
